Hourly Weather Roundup
Issued by NWS Central Illinois

Home | Current Version | Previous Version | Text Only | Print | Product List | Glossary On
Versions: 1 2 3 4 5 6 7 8 9 10 11 12 13 14 15 16 17 18 19 20 21 22 23 24 25 26 27 28 29 30 31 32 33 34 35 36 37 38 39 40 41 42 43 44 45 46 47 48 49 50
000
NZUS43 KILX 210310
HWRILX

AREA WEATHER ROUNDUP
NATIONAL WEATHER SERVICE, LINCOLN IL
1000 PM CDT MON APR 20 2015


CITY           SKY/WX    TMP DP  RH WIND       PRES   REMARKS
BLOOMINGTON    PTCLDY    46  36  68 SW12      29.73R
CHAMPAIGN      MOCLDY    45  36  70 SW14      29.75R
DECATUR        PTCLDY    44  35  70 SW7       29.77R
EFFINGHAM      PTCLDY    46  33  61 S6        29.83R
FLORA          PTCLDY    44  37  75 SW6       29.84R
GALESBURG      CLEAR     40  31  71 SW9       29.69S WCI  34
JACKSONVILLE   PTCLDY    47  35  62 SW8       29.77S
LACON          PTCLDY    40  34  80 SW3       29.69S
LAWRENCEVILLE  CLOUDY    49  37  63 SW6       29.83R
LITCHFIELD     PTCLDY    45  35  68 SW8       29.81S
$$


CITY           SKY/WX    TMP DP  RH WIND       PRES   REMARKS
LINCOLN        MOCLDY    47  35  63 SW5       29.74S
MACOMB         CLEAR     43  32  65 SW12      29.74F
MATTOON        PTCLDY    45  36  70 SW6       29.78R
MT CARMEL AP   MOCLDY    50  36  57 SW6       29.83R
OLNEY-NOBLE AP CLOUDY    46  36  66 CALM      29.84R
PARIS          CLOUDY    46  40  81 SW9       29.79R
PEORIA         PTCLDY    44  32  62 SW9       29.71S
PONTIAC        CLOUDY    44  39  80 SW6       29.70F
RANTOUL        PTCLDY    45  38  77 SW12      29.73S
ROBINSON       CLOUDY    49  37  63 SW8       29.83R
SPRINGFIELD    CLEAR     46  35  65 SW8       29.77S
TAYLORVILLE    PTCLDY    45  34  65 SW9       29.79R
$$

...REGIONAL REPORTS...


CITY           SKY/WX    TMP DP  RH WIND       PRES   REMARKS
CHICAGO O`HARE PTCLDY    43  31  62 W12       29.61R
KANKAKEE       CLOUDY    43  37  80 SW10      29.70R
MOLINE         CLEAR     39  34  82 CALM      29.68R
MOUNT VERNON   PTCLDY    45  36  70 CALM      29.86R
PITTSFIELD     CLEAR     47  31  55 SW6       29.79S
QUINCY         CLEAR     44  29  55 SW8       29.76S
ROCKFORD       PTCLDY    43  30  60 W12       29.64R
$$


CITY           SKY/WX    TMP DP  RH WIND       PRES   REMARKS
BURLINGTON     CLEAR     43  31  62 SW9       29.71R
CEDAR RAPIDS   CLEAR     37  34  89 W7        29.67S WCI  32
DES MOINES     CLEAR     43  22  43 W9        29.72R
KIRKSVILLE     CLEAR     46  26  45 SW7       29.78R
OTTUMWA        CLEAR     41  23  48 W6        29.71R
ST LOUIS       PTCLDY    50  31  48 W7        29.85R
$$


CITY           SKY/WX    TMP DP  RH WIND       PRES   REMARKS
TERRE HAUTE    CLOUDY    47  37  68 W10       29.79R
EVANSVILLE     PTCLDY    51  34  52 CALM      29.86R
INDIANAPOLIS   MOCLDY    45  35  68 W14       29.75R
LAFAYETTE      MOCLDY    45  35  68 W9        29.73R
MADISON        CLOUDY    42  28  57 VRB7G18   29.54S
MILWAUKEE      CLOUDY    44  29  55 W8        29.55R
$$




USA.gov is the U.S. government's official web portal to all federal, state and local government web resources and services.